GW2349 Weather Reports


Display with metric or nautical units.
time (UTC)temp
F
wind
direction
speed
MPH
gust
MPH
rain 1hr
in
rain 24hr
in
rain mn
in
humidity
%
barometer
mb
20260508073048 42 98 0.0 4.0 0.00 0.09 0.03 82 1023.0
20260508072542 41 91 0.0 4.0 0.00 0.09 0.03 82 1023.0
20260508072042 41 0 0.0 2.0 0.00 0.09 0.03 82 1022.9
20260508071550 41 0 0.0 2.0 0.00 0.09 0.03 81 1022.9
20260508071041 40 0 0.0 2.0 0.00 0.09 0.03 81 1023.0
20260508070542 40 0 0.0 2.0 0.00 0.09 0.03 82 1022.8
20260508070054 40 69 0.0 2.0 0.00 0.09 0.03 84 1022.8
20260508065542 40 69 0.0 1.0 0.00 0.11 0.03 84 1022.7
20260508065043 40 0 0.0 0.0 0.00 0.11 0.03 83 1022.7
20260508064606 39 0 0.0 0.0 0.00 0.11 0.03 83 1022.7
20260508064042 39 0 0.0 0.0 0.00 0.11 0.03 84 1022.7
20260508063542 39 0 0.0 0.0 0.00 0.11 0.03 84 1022.7
20260508063048 39 0 0.0 0.0 0.00 0.11 0.03 84 1022.7
20260508062541 39 0 0.0 0.0 0.00 0.11 0.03 84 1022.7
20260508062042 39 0 0.0 0.0 0.00 0.11 0.03 85 1022.7
20260508061559 38 0 0.0 0.0 0.00 0.11 0.03 85 1022.6
20260508061043 38 0 0.0 0.0 0.00 0.11 0.03 85 1022.5
20260508060541 38 0 0.0 0.0 0.00 0.11 0.03 85 1022.5
20260508060050 38 0 0.0 0.0 0.00 0.11 0.03 86 1022.5
20260508055545 38 0 0.0 0.0 0.00 0.11 0.03 86 1022.5
20260508055039 38 0 0.0 0.0 0.00 0.11 0.03 86 1022.5
20260508054612 38 0 0.0 0.0 0.00 0.11 0.03 86 1022.4
20260508054041 38 0 0.0 0.0 0.00 0.11 0.03 87 1022.4
20260508053544 37 0 0.0 0.0 0.00 0.11 0.03 87 1022.4
20260508053056 37 0 0.0 0.0 0.00 0.11 0.03 87 1022.3
20260508052544 37 0 0.0 0.0 0.00 0.11 0.03 87 1022.2
20260508052043 37 0 0.0 0.0 0.00 0.11 0.03 87 1022.2
20260508051549 37 0 0.0 0.0 0.00 0.11 0.03 87 1022.3
20260508051042 37 0 0.0 0.0 0.00 0.11 0.03 88 1022.2
20260508050542 37 0 0.0 0.0 0.00 0.11 0.03 88 1022.2
20260508050054 36 0 0.0 0.0 0.00 0.11 0.03 88 1022.2
20260508045541 36 0 0.0 0.0 0.00 0.11 0.03 87 1022.1
20260508045042 36 0 0.0 0.0 0.00 0.11 0.03 87 1022.0
20260508044552 36 0 0.0 0.0 0.00 0.11 0.03 87 1022.0
20260508044043 36 0 0.0 0.0 0.00 0.11 0.03 86 1021.9
20260508043542 36 0 0.0 0.0 0.00 0.11 0.03 86 1021.9
20260508043058 35 0 0.0 0.0 0.00 0.11 0.03 86 1021.9
20260508042546 35 0 0.0 0.0 0.00 0.11 0.03 86 1021.9
20260508042041 35 0 0.0 0.0 0.00 0.10 0.03 86 1021.8
20260508041555 35 0 0.0 0.0 0.00 0.10 0.03 86 1021.9
20260508041045 35 0 0.0 0.0 0.00 0.10 0.03 86 1021.9
20260508040542 35 0 0.0 0.0 0.00 0.10 0.03 86 1021.8
20260508035546 35 0 0.0 0.0 0.00 0.10 0.03 86 1021.7
20260508035042 35 0 0.0 0.0 0.00 0.10 0.03 86 1021.7
20260508034553 35 0 0.0 0.0 0.00 0.10 0.03 86 1021.7
20260508034041 35 0 0.0 0.0 0.00 0.10 0.03 85 1021.7
20260508033541 34 0 0.0 0.0 0.00 0.10 0.03 85 1021.6
20260508033051 34 0 0.0 0.0 0.01 0.10 0.03 85 1021.6
20260508032542 34 0 0.0 0.0 0.02 0.10 0.03 86 1021.6
20260508032042 34 0 0.0 0.0 0.02 0.10 0.03 86 1021.6
20260508031603 34 0 0.0 0.0 0.02 0.10 0.03 85 1021.6
20260508031042 34 0 0.0 0.0 0.02 0.10 0.03 85 1021.5
20260508030541 34 0 0.0 0.0 0.02 0.10 0.03 85 1021.5
20260508030106 34 0 0.0 0.0 0.02 0.10 0.03 85 1021.4
20260508025543 34 0 0.0 0.0 0.02 0.10 0.03 85 1021.4
20260508025042 34 0 0.0 0.0 0.02 0.10 0.03 85 1021.5
20260508024553 34 0 0.0 0.0 0.02 0.10 0.03 85 1021.4
20260508024042 34 0 0.0 1.0 0.02 0.10 0.03 85 1021.4
20260508023542 34 0 0.0 3.0 0.01 0.09 0.02 85 1021.4
20260508023053 34 0 1.0 3.0 0.00 0.08 0.01 85 1021.4
20260508022541 34 327 1.0 3.0 0.00 0.07 0.00 85 1021.5
20260508022043 34 330 2.0 3.0 0.00 0.07 0.00 85 1021.4
20260508021603 34 0 0.0 0.0 0.00 0.07 0.00 85 1021.4
20260508021042 34 0 0.0 0.0 0.00 0.07 0.00 85 1021.4
20260508020542 34 0 0.0 0.0 0.00 0.07 0.00 85 1021.2
20260508020052 34 0 0.0 0.0 0.00 0.07 0.00 85 1021.3
20260508015542 34 0 0.0 0.0 0.00 0.07 0.00 84 1021.1
20260508015042 34 0 0.0 0.0 0.00 0.07 0.00 84 1021.1
20260508014552 34 0 0.0 0.0 0.00 0.07 0.00 85 1021.0
20260508014042 34 0 0.0 0.0 0.00 0.07 0.00 85 1021.0
20260508013541 34 0 0.0 0.0 0.00 0.07 0.00 85 1021.0
20260508013050 34 0 0.0 0.0 0.00 0.07 0.00 85 1020.8
20260508012541 35 0 0.0 0.0 0.00 0.07 0.00 85 1020.9
20260508012044 35 0 0.0 0.0 0.00 0.07 0.00 85 1020.8
20260508011554 35 0 0.0 0.0 0.00 0.07 0.00 85 1020.8
20260508011043 35 0 0.0 0.0 0.00 0.07 0.00 86 1020.7
20260508010541 35 0 0.0 0.0 0.00 0.07 0.00 85 1020.8
20260508010050 35 0 0.0 0.0 0.00 0.07 0.00 86 1020.7
20260508005543 35 0 0.0 0.0 0.00 0.07 0.00 85 1020.8
20260508005045 35 0 0.0 0.0 0.00 0.07 0.00 85 1020.8
20260508004550 35 0 0.0 0.0 0.00 0.07 0.00 85 1020.7
20260508004042 35 0 0.0 0.0 0.00 0.07 0.00 85 1020.7
20260508003541 35 0 0.0 0.0 0.00 0.07 0.00 85 1020.7
20260508003049 35 0 0.0 0.0 0.00 0.07 0.00 85 1020.5
20260508002541 35 0 0.0 0.0 0.00 0.07 0.00 85 1020.5
20260508002045 35 0 0.0 0.0 0.00 0.07 0.00 85 1020.4
20260508001547 35 0 0.0 0.0 0.00 0.07 0.00 85 1020.5
20260508001043 35 0 0.0 0.0 0.00 0.07 0.00 86 1020.4
20260508000542 35 0 0.0 0.0 0.00 0.07 0.00 86 1020.4
20260508000105 35 0 0.0 0.0 0.00 0.07 0.00 86 1020.4
20260507235544 35 0 0.0 0.0 0.00 0.08 0.00 86 1020.2
20260507235042 35 0 0.0 0.0 0.00 0.08 0.00 86 1020.1
20260507234556 35 0 0.0 6.0 0.00 0.08 0.00 86 1020.1
20260507234043 35 0 0.0 9.0 0.00 0.08 0.00 86 1020.0
20260507233541 35 296 5.0 9.0 0.00 0.08 0.00 86 1020.0
20260507233051 35 327 4.0 11.0 0.00 0.07 0.00 86 1020.0
20260507232541 35 253 4.0 11.0 0.00 0.07 0.00 87 1020.0
20260507232134 35 284 6.0 14.0 0.00 0.07 0.00 87 1020.1
20260507231558 35 234 5.0 14.0 0.00 0.07 0.00 87 1020.0
20260507231041 34 246 7.0 14.0 0.00 0.07 0.00 87 1020.0
20260507230545 34 242 4.0 12.0 0.00 0.07 0.00 87 1020.0
20260507230047 34 212 1.0 12.0 0.00 0.07 0.00 86 1020.1
20260507225541 33 244 2.0 7.0 0.00 0.09 0.00 85 1020.1
20260507225042 33 0 0.0 0.0 0.00 0.09 0.00 82 1019.8
20260507224551 33 0 0.0 0.0 0.00 0.09 0.00 82 1019.7
20260507224041 33 0 0.0 0.0 0.00 0.09 0.00 82 1019.6
20260507223544 33 0 0.0 0.0 0.00 0.09 0.00 82 1019.6
20260507223055 33 0 0.0 0.0 0.00 0.09 0.00 81 1019.5
20260507222541 34 0 0.0 0.0 0.00 0.09 0.00 81 1019.5
20260507222041 34 0 0.0 0.0 0.00 0.09 0.00 81 1019.5
20260507221544 34 0 0.0 0.0 0.00 0.09 0.00 81 1019.5
20260507221041 34 0 0.0 0.0 0.00 0.09 0.00 81 1019.4
20260507220541 34 0 0.0 0.0 0.00 0.09 0.00 81 1019.4
20260507220053 34 0 0.0 1.0 0.00 0.09 0.00 81 1019.3
20260507215542 34 0 0.0 2.0 0.00 0.11 0.09 81 1019.3
20260507215042 34 0 0.0 2.0 0.00 0.11 0.09 82 1019.3
20260507214554 35 0 0.0 2.0 0.00 0.11 0.09 81 1019.2
20260507214041 35 0 0.0 3.0 0.00 0.11 0.09 82 1019.2
20260507213542 35 321 0.0 3.0 0.00 0.11 0.09 82 1019.2
20260507213048 35 321 1.0 3.0 0.00 0.11 0.09 82 1019.1
20260507212544 35 320 1.0 2.0 0.00 0.11 0.09 82 1019.1
20260507212041 35 0 0.0 3.0 0.00 0.11 0.09 82 1019.1
20260507211558 35 0 1.0 3.0 0.00 0.11 0.09 82 1019.1
20260507211041 35 0 0.0 1.0 0.00 0.11 0.09 81 1019.0
20260507210541 35 0 0.0 1.0 0.00 0.11 0.09 81 1019.0
20260507210049 36 0 0.0 0.0 0.00 0.11 0.09 81 1018.9
20260507205541 36 0 0.0 0.0 0.00 0.12 0.09 81 1018.8
20260507205042 36 0 0.0 0.0 0.00 0.12 0.09 81 1018.7
20260507204548 36 0 0.0 0.0 0.00 0.12 0.09 81 1018.7
20260507204041 36 0 0.0 0.0 0.00 0.12 0.09 81 1018.6
20260507203541 36 0 0.0 1.0 0.00 0.12 0.09 81 1018.6
20260507203043 36 0 0.0 1.0 0.00 0.12 0.09 81 1018.5
20260507202543 37 0 0.0 1.0 0.00 0.12 0.09 81 1018.5
20260507202041 37 0 0.0 3.0 0.00 0.12 0.09 81 1018.4
20260507201547 37 0 0.0 3.0 0.00 0.12 0.09 81 1018.3
20260507201042 37 349 0.0 3.0 0.00 0.12 0.09 81 1018.3
20260507200541 37 0 0.0 0.0 0.00 0.12 0.09 81 1018.3
20260507200045 37 0 0.0 1.0 0.00 0.12 0.09 81 1018.3
20260507195541 38 0 0.0 1.0 0.00 0.14 0.09 82 1018.3
20260507195041 38 0 0.0 0.0 0.01 0.14 0.09 82 1018.2
20260507194551 38 0 0.0 0.0 0.02 0.14 0.09 82 1018.1
20260507194042 38 0 0.0 0.0 0.03 0.14 0.09 83 1018.0
20260507193541 38 0 0.0 0.0 0.03 0.14 0.09 83 1018.1
20260507193056 38 0 0.0 0.0 0.03 0.14 0.09 82 1018.0
20260507192541 37 0 0.0 0.0 0.03 0.14 0.09 82 1017.9
20260507192042 37 0 0.0 2.0 0.03 0.14 0.09 82 1017.9
20260507191552 37 0 0.0 3.0 0.03 0.14 0.09 82 1017.8
20260507191042 37 0 1.0 4.0 0.03 0.14 0.09 82 1017.8
20260507190542 37 318 1.0 5.0 0.03 0.14 0.09 81 1017.7
20260507190047 37 310 2.0 7.0 0.03 0.14 0.09 81 1017.8
20260507185541 38 223 3.0 9.0 0.03 0.15 0.09 80 1017.9
20260507185041 38 270 3.0 11.0 0.01 0.14 0.07 80 1017.9
20260507184550 39 275 5.0 13.0 0.00 0.13 0.07 80 1017.9
20260507184041 39 267 7.0 13.0 0.00 0.12 0.06 80 1017.8
20260507183541 39 260 4.0 11.0 0.00 0.12 0.06 79 1017.6
20260507183049 40 250 2.0 5.0 0.00 0.12 0.06 79 1017.4
20260507182541 40 0 0.0 4.0 0.00 0.12 0.06 79 1017.2
20260507182041 40 0 0.0 4.0 0.00 0.12 0.06 79 1017.3
20260507181553 40 0 1.0 4.0 0.00 0.12 0.06 78 1017.2
20260507181041 40 249 1.0 3.0 0.00 0.12 0.06 78 1017.2
20260507180546 40 255 0.0 3.0 0.00 0.12 0.06 79 1017.1
20260507180051 40 256 1.0 7.0 0.00 0.12 0.06 78 1017.1
20260507175543 40 249 2.0 7.0 0.00 0.14 0.06 79 1017.0
20260507175043 40 250 2.0 8.0 0.00 0.14 0.06 79 1017.1
20260507174614 40 242 3.0 10.0 0.00 0.14 0.06 78 1017.2
20260507174042 41 242 5.0 10.0 0.00 0.14 0.06 77 1017.2
20260507173543 41 237 4.0 8.0 0.00 0.14 0.06 76 1017.1
20260507173048 41 242 3.0 7.0 0.00 0.14 0.06 75 1017.0
20260507172543 41 221 2.0 5.0 0.00 0.14 0.06 75 1017.0
20260507172044 41 257 2.0 7.0 0.00 0.14 0.06 75 1017.0
20260507171602 42 254 2.0 7.0 0.00 0.14 0.06 75 1017.0
20260507171043 42 287 3.0 6.0 0.00 0.14 0.06 75 1017.1
20260507170543 42 192 2.0 8.0 0.00 0.14 0.06 74 1017.0
20260507170052 42 194 4.0 8.0 0.00 0.14 0.06 74 1017.0
20260507165546 42 189 2.0 9.0 0.00 0.19 0.06 75 1017.0
20260507165043 42 301 3.0 10.0 0.00 0.19 0.06 75 1016.9
20260507164553 41 257 5.0 10.0 0.00 0.19 0.06 75 1017.0
20260507164043 41 242 3.0 11.0 0.00 0.19 0.06 75 1016.9
20260507163543 41 253 5.0 11.0 0.00 0.19 0.06 75 1016.9
20260507163051 41 316 6.0 11.0 0.00 0.19 0.06 75 1017.0
20260507162543 41 238 1.0 9.0 0.00 0.19 0.06 77 1016.8
20260507162045 41 257 4.0 9.0 0.00 0.19 0.06 77 1016.9
20260507161552 41 217 5.0 9.0 0.00 0.19 0.06 77 1016.7
20260507161042 41 252 5.0 8.0 0.00 0.19 0.06 78 1016.8
20260507160544 40 196 3.0 8.0 0.00 0.19 0.06 78 1016.7
20260507160110 40 240 3.0 9.0 0.00 0.19 0.06 78 1016.8
20260507155542 40 281 4.0 9.0 0.00 0.24 0.06 79 1016.7
20260507155044 40 253 4.0 9.0 0.00 0.24 0.06 78 1016.8
20260507154552 40 268 4.0 9.0 0.00 0.24 0.06 78 1016.7
20260507154044 40 271 2.0 9.0 0.00 0.24 0.06 77 1016.7
20260507153546 40 261 3.0 9.0 0.00 0.24 0.06 77 1016.8
20260507153047 40 257 5.0 10.0 0.00 0.24 0.06 77 1016.7
20260507152553 40 273 4.0 10.0 0.00 0.24 0.06 77 1016.8
20260507152046 40 266 5.0 10.0 0.00 0.24 0.06 76 1016.8
20260507151557 41 216 6.0 12.0 0.00 0.24 0.06 76 1016.9
20260507151043 41 251 7.0 12.0 0.00 0.24 0.06 75 1016.9
20260507150557 42 315 5.0 12.0 0.00 0.24 0.06 76 1016.9
20260507150053 42 262 4.0 16.0 0.00 0.24 0.06 76 1016.7
20260507145547 42 243 8.0 16.0 0.00 0.24 0.06 75 1016.7
20260507145044 42 240 5.0 11.0 0.00 0.24 0.06 74 1016.6
20260507144548 42 306 4.0 10.0 0.00 0.24 0.06 73 1016.4
20260507144043 42 261 4.0 9.0 0.00 0.24 0.06 72 1016.4
20260507143543 42 233 4.0 9.0 0.00 0.24 0.06 71 1016.3
20260507143058 42 267 4.0 12.0 0.00 0.24 0.06 72 1016.4
20260507142546 42 240 5.0 12.0 0.00 0.24 0.06 71 1016.4
20260507142043 42 223 5.0 11.0 0.00 0.24 0.06 71 1016.4
20260507141553 43 223 6.0 11.0 0.00 0.24 0.06 72 1016.4
20260507141043 43 235 5.0 9.0 0.00 0.24 0.06 74 1016.4
20260507140543 43 258 3.0 10.0 0.00 0.24 0.06 75 1016.3
20260507140110 43 255 3.0 12.0 0.00 0.24 0.06 74 1016.2
20260507135543 43 244 5.0 13.0 0.00 0.24 0.06 74 1016.1
20260507135043 43 234 7.0 13.0 0.00 0.24 0.06 74 1016.0
20260507134555 43 265 7.0 13.0 0.00 0.24 0.06 73 1016.0
20260507134043 43 252 8.0 13.0 0.00 0.24 0.06 73 1016.0
20260507133543 44 245 4.0 8.0 0.00 0.24 0.06 73 1015.9
20260507133056 43 243 4.0 11.0 0.00 0.24 0.06 72 1015.9
20260507132543 44 251 4.0 11.0 0.00 0.24 0.06 70 1015.9
20260507132042 44 209 4.0 11.0 0.00 0.24 0.06 70 1015.8
20260507131618 44 235 5.0 11.0 0.00 0.24 0.06 70 1015.9
20260507131043 44 288 4.0 9.0 0.00 0.24 0.06 71 1016.0
20260507130544 44 250 3.0 12.0 0.00 0.24 0.06 72 1015.9
20260507130050 44 178 6.0 12.0 0.00 0.24 0.06 70 1015.9
20260507125543 44 240 6.0 11.0 0.00 0.24 0.06 70 1015.9
20260507125043 44 275 5.0 12.0 0.00 0.24 0.06 69 1015.9
20260507124600 44 230 6.0 13.0 0.00 0.24 0.06 68 1015.9
20260507124044 44 299 3.0 13.0 0.00 0.24 0.06 72 1015.7
20260507123543 44 209 5.0 13.0 0.00 0.24 0.06 69 1015.8
20260507123051 43 265 5.0 11.0 0.00 0.24 0.06 71 1015.7
20260507122543 43 194 3.0 10.0 0.00 0.24 0.06 72 1015.6
20260507122047 43 213 4.0 10.0 0.00 0.24 0.06 74 1015.7
20260507121556 43 261 5.0 11.0 0.00 0.24 0.06 76 1015.6
20260507121043 42 186 4.0 11.0 0.00 0.24 0.06 78 1015.5
20260507120542 42 315 3.0 8.0 0.00 0.24 0.06 79 1015.6
20260507120051 42 242 3.0 8.0 0.00 0.24 0.06 79 1015.7
20260507115543 41 175 3.0 9.0 0.00 0.24 0.06 80 1015.6
20260507115043 41 259 5.0 9.0 0.00 0.24 0.06 79 1015.7
20260507114549 41 171 3.0 9.0 0.00 0.24 0.06 79 1015.6
20260507114051 41 165 3.0 7.0 0.00 0.24 0.06 81 1015.6
20260507113545 41 197 1.0 4.0 0.00 0.24 0.06 80 1015.6
20260507113107 41 314 1.0 9.0 0.00 0.24 0.06 79 1015.4
20260507112545 41 0 2.0 10.0 0.00 0.24 0.06 78 1015.5
20260507112042 41 259 5.0 12.0 0.00 0.24 0.06 77 1015.4
20260507111545 41 315 5.0 14.0 0.00 0.24 0.06 77 1015.3
20260507111042 41 219 8.0 14.0 0.00 0.24 0.06 75 1015.2
20260507110543 42 221 5.0 14.0 0.00 0.24 0.06 77 1015.1
20260507110051 42 263 5.0 13.0 0.00 0.24 0.06 78 1014.9
20260507105542 42 258 5.0 11.0 0.00 0.24 0.06 77 1014.8
20260507105043 42 240 6.0 12.0 0.00 0.24 0.06 77 1014.8
20260507104559 42 196 4.0 12.0 0.00 0.24 0.06 77 1014.8
20260507104043 42 253 6.0 12.0 0.00 0.24 0.06 77 1014.7
20260507103543 42 250 3.0 10.0 0.00 0.24 0.06 75 1014.6
20260507103049 42 244 6.0 10.0 0.00 0.24 0.06 74 1014.6
20260507102542 42 230 5.0 10.0 0.00 0.24 0.06 75 1014.5
20260507102042 42 236 5.0 10.0 0.00 0.24 0.06 75 1014.6
20260507101554 42 192 5.0 10.0 0.00 0.24 0.06 76 1014.6
20260507101042 42 249 4.0 11.0 0.00 0.24 0.06 77 1014.6
20260507100542 42 300 6.0 12.0 0.00 0.24 0.06 76 1014.5
20260507100056 42 273 4.0 12.0 0.00 0.24 0.06 76 1014.5
20260507095545 42 214 7.0 12.0 0.00 0.24 0.06 78 1014.4
20260507095043 42 257 5.0 8.0 0.00 0.24 0.06 78 1014.5
20260507094555 42 180 4.0 8.0 0.00 0.24 0.06 78 1014.4
20260507094046 42 294 3.0 12.0 0.00 0.24 0.06 79 1014.4
20260507093543 42 258 6.0 12.0 0.00 0.24 0.06 79 1014.3
20260507093053 42 263 3.0 10.0 0.00 0.24 0.06 78 1014.3
20260507092543 42 227 5.0 12.0 0.00 0.24 0.06 78 1014.3
20260507092047 42 252 5.0 12.0 0.00 0.24 0.06 77 1014.3
20260507091553 42 238 5.0 11.0 0.00 0.24 0.06 76 1014.3
20260507091043 42 233 4.0 9.0 0.00 0.24 0.06 76 1014.1
20260507090542 42 243 4.0 9.0 0.01 0.24 0.06 75 1014.1
20260507090055 42 207 2.0 9.0 0.02 0.24 0.06 78 1014.0
20260507085542 42 260 1.0 7.0 0.02 0.24 0.06 81 1013.9
20260507085042 41 231 1.0 7.0 0.02 0.24 0.06 79 1014.0
20260507084558 41 167 2.0 7.0 0.02 0.24 0.06 78 1013.9
20260507084042 41 170 4.0 9.0 0.02 0.24 0.06 78 1013.9
20260507083542 41 191 3.0 12.0 0.02 0.24 0.06 79 1013.8
20260507083047 41 232 3.0 12.0 0.02 0.24 0.06 80 1013.8
20260507082542 41 232 4.0 12.0 0.02 0.24 0.06 80 1013.8
20260507082042 41 230 2.0 7.0 0.01 0.23 0.05 80 1013.7
20260507081554 41 175 1.0 4.0 0.01 0.23 0.05 80 1013.8
20260507081042 41 0 1.0 12.0 0.01 0.23 0.05 78 1013.7
20260507080545 41 300 2.0 12.0 0.00 0.22 0.04 78 1013.7
20260507080054 42 232 4.0 10.0 0.00 0.22 0.03 78 1013.6
20260507075546 42 263 2.0 9.0 0.00 0.22 0.03 78 1013.6
20260507075043 42 259 2.0 7.0 0.00 0.22 0.03 78 1013.5
20260507074552 42 254 2.0 6.0 0.00 0.22 0.03 78 1013.5
20260507074042 42 137 0.0 4.0 0.00 0.22 0.03 80 1013.5
20260507073542 42 100 0.0 4.0 0.00 0.22 0.03 82 1013.5